Time,TemperatureF,DewpointF,PressureIn,WindDirection,WindDirectionDegrees,WindSpeedMPH,WindSpeedGustMPH,Humidity,HourlyPrecipIn,Conditions,Clouds,dailyrainin,SoftwareType,DateUTC
2013-07-31 00:14:00,63.7,58.0,30.04,West,259,0.0,-999.0,82,-99.99,,,0.00,weatherlink.com 1.10,2013-07-31 04:14:00,
2013-07-31 00:29:00,63.0,58.0,30.04,West,259,0.0,-999.0,84,-99.99,,,0.00,weatherlink.com 1.10,2013-07-31 04:29:00,
2013-07-31 00:44:00,63.0,59.0,30.04,West,269,0.0,-999.0,85,-99.99,,,0.00,weatherlink.com 1.10,2013-07-31 04:44:00,
2013-07-31 00:59:00,62.6,58.0,30.04,WNW,294,4.0,-999.0,84,-99.99,,,0.00,weatherlink.com 1.10,2013-07-31 04:59:00,
2013-07-31 01:14:00,62.7,58.0,30.03,WNW,290,4.0,-999.0,83,-99.99,,,0.00,weatherlink.com 1.10,2013-07-31 05:14:00,
2013-07-31 01:29:00,62.5,58.0,30.04,WNW,291,5.0,-999.0,84,-99.99,,,0.00,weatherlink.com 1.10,2013-07-31 05:29:00,
2013-07-31 01:44:00,61.6,57.0,30.03,WNW,294,2.0,-999.0,85,-99.99,,,0.00,weatherlink.com 1.10,2013-07-31 05:44:00,
2013-07-31 01:59:00,61.0,57.0,30.04,West,280,7.0,-999.0,87,-99.99,,,0.00,weatherlink.com 1.10,2013-07-31 05:59:00,
2013-07-31 02:14:00,60.9,57.0,30.04,NW,309,4.0,-999.0,87,-99.99,,,0.00,weatherlink.com 1.10,2013-07-31 06:14:00,
2013-07-31 02:29:00,61.2,57.0,30.04,NW,314,1.0,-999.0,87,-99.99,,,0.00,weatherlink.com 1.10,2013-07-31 06:29:00,
2013-07-31 02:44:00,60.7,57.0,30.04,WNW,296,2.0,-999.0,88,-99.99,,,0.00,weatherlink.com 1.10,2013-07-31 06:44:00,
2013-07-31 02:59:00,60.1,57.0,30.04,West,277,3.0,-999.0,89,-99.99,,,0.00,weatherlink.com 1.10,2013-07-31 06:59:00,
2013-07-31 03:14:00,59.3,56.0,30.04,West,277,0.0,-999.0,90,-99.99,,,0.00,weatherlink.com 1.10,2013-07-31 07:14:00,
2013-07-31 03:29:00,58.7,56.0,30.04,West,278,0.0,-999.0,91,-99.99,,,0.00,weatherlink.com 1.10,2013-07-31 07:29:00,
2013-07-31 03:45:00,57.8,56.0,30.05,West,277,0.0,-999.0,92,-99.99,,,0.00,weatherlink.com 1.10,2013-07-31 07:45:00,
2013-07-31 04:00:00,57.3,55.0,30.05,West,277,0.0,-999.0,93,-99.99,,,0.00,weatherlink.com 1.10,2013-07-31 08:00:00,
2013-07-31 04:15:00,56.9,55.0,30.05,West,277,0.0,-999.0,94,-99.99,,,0.00,weatherlink.com 1.10,2013-07-31 08:15:00,
2013-07-31 04:30:00,56.7,55.0,30.05,West,277,0.0,-999.0,94,-99.99,,,0.00,weatherlink.com 1.10,2013-07-31 08:30:00,
2013-07-31 04:45:00,56.3,55.0,30.06,West,277,0.0,-999.0,94,-99.99,,,0.00,weatherlink.com 1.10,2013-07-31 08:45:00,
2013-07-31 05:00:00,55.9,55.0,30.06,West,277,0.0,-999.0,95,-99.99,,,0.00,weatherlink.com 1.10,2013-07-31 09:00:00,
2013-07-31 05:15:00,56.0,55.0,30.07,West,277,0.0,-999.0,95,-99.99,,,0.00,weatherlink.com 1.10,2013-07-31 09:15:00,
2013-07-31 05:30:00,56.2,55.0,30.07,West,277,0.0,-999.0,95,-99.99,,,0.00,weatherlink.com 1.10,2013-07-31 09:30:00,
2013-07-31 05:45:00,56.3,55.0,30.08,West,277,0.0,-999.0,95,-99.99,,,0.00,weatherlink.com 1.10,2013-07-31 09:45:00,
2013-07-31 06:00:00,55.9,55.0,30.08,West,277,0.0,-999.0,95,-99.99,,,0.00,weatherlink.com 1.10,2013-07-31 10:00:00,
2013-07-31 06:15:00,55.8,54.0,30.09,West,277,0.0,-999.0,95,-99.99,,,0.00,weatherlink.com 1.10,2013-07-31 10:15:00,
2013-07-31 06:30:00,56.0,55.0,30.09,West,277,0.0,-999.0,96,-99.99,,,0.00,weatherlink.com 1.10,2013-07-31 10:30:00,
2013-07-31 06:45:00,56.4,55.0,30.09,West,277,0.0,-999.0,95,-99.99,,,0.00,weatherlink.com 1.10,2013-07-31 10:45:00,
2013-07-31 07:00:00,57.2,56.0,30.10,West,277,0.0,-999.0,94,-99.99,,,0.00,weatherlink.com 1.10,2013-07-31 11:00:00,
2013-07-31 07:15:00,57.7,56.0,30.10,West,277,0.0,-999.0,94,-99.99,,,0.00,weatherlink.com 1.10,2013-07-31 11:15:00,
2013-07-31 07:30:00,58.8,57.0,30.10,West,277,0.0,-999.0,93,-99.99,,,0.00,weatherlink.com 1.10,2013-07-31 11:30:00,
2013-07-31 07:45:00,59.8,57.0,30.10,West,277,0.0,-999.0,90,-99.99,,,0.00,weatherlink.com 1.10,2013-07-31 11:45:00,
2013-07-31 08:00:00,61.4,58.0,30.10,West,277,0.0,-999.0,87,-99.99,,,0.00,weatherlink.com 1.10,2013-07-31 12:00:00,
2013-07-31 08:15:00,62.6,58.0,30.10,West,277,0.0,-999.0,84,-99.99,,,0.00,weatherlink.com 1.10,2013-07-31 12:15:00,
2013-07-31 08:30:00,64.3,58.0,30.10,West,279,0.0,-999.0,81,-99.99,,,0.00,weatherlink.com 1.10,2013-07-31 12:30:00,
2013-07-31 08:45:00,65.3,59.0,30.09,WNW,289,3.0,-999.0,79,-99.99,,,0.00,weatherlink.com 1.10,2013-07-31 12:45:00,
2013-07-31 09:00:00,66.1,58.0,30.09,NW,316,4.0,-999.0,74,-99.99,,,0.00,weatherlink.com 1.10,2013-07-31 13:00:00,
2013-07-31 09:15:00,67.1,58.0,30.09,West,272,0.0,-999.0,72,-99.99,,,0.00,weatherlink.com 1.10,2013-07-31 13:15:00,
2013-07-31 09:30:00,67.9,56.0,30.09,NW,322,6.0,-999.0,66,-99.99,,,0.00,weatherlink.com 1.10,2013-07-31 13:30:00,
2013-07-31 09:45:00,68.5,58.0,30.08,NNE,17,0.0,-999.0,69,-99.99,,,0.00,weatherlink.com 1.10,2013-07-31 13:45:00,
2013-07-31 10:00:00,69.0,57.0,30.08,NW,313,2.0,-999.0,65,-99.99,,,0.00,weatherlink.com 1.10,2013-07-31 14:00:00,
2013-07-31 10:15:00,69.5,58.0,30.07,WNW,301,6.0,-999.0,66,-99.99,,,0.00,weatherlink.com 1.10,2013-07-31 14:15:00,
2013-07-31 10:30:00,69.8,57.0,30.07,NNW,343,2.0,-999.0,65,-99.99,,,0.00,weatherlink.com 1.10,2013-07-31 14:30:00,
2013-07-31 10:45:00,71.1,57.0,30.07,NNW,330,4.0,-999.0,61,-99.99,,,0.00,weatherlink.com 1.10,2013-07-31 14:45:00,
2013-07-31 11:00:00,71.8,58.0,30.06,North,355,4.0,-999.0,63,-99.99,,,0.00,weatherlink.com 1.10,2013-07-31 15:00:00,
2013-07-31 11:15:00,72.2,57.0,30.06,ENE,72,0.0,-999.0,60,-99.99,,,0.00,weatherlink.com 1.10,2013-07-31 15:15:00,
2013-07-31 11:30:00,71.9,56.0,30.06,WNW,288,0.0,-999.0,58,-99.99,,,0.00,weatherlink.com 1.10,2013-07-31 15:30:00,
2013-07-31 11:45:00,72.7,59.0,30.06,West,272,3.0,-999.0,62,-99.99,,,0.00,weatherlink.com 1.10,2013-07-31 15:45:00,
2013-07-31 12:00:00,74.2,56.0,30.05,WNW,289,5.0,-999.0,54,-99.99,,,0.00,weatherlink.com 1.10,2013-07-31 16:00:00,
2013-07-31 12:15:00,73.2,54.0,30.05,WNW,294,0.0,-999.0,52,-99.99,,,0.00,weatherlink.com 1.10,2013-07-31 16:15:00,
2013-07-31 12:30:00,73.4,55.0,30.05,West,265,3.0,-999.0,52,-99.99,,,0.00,weatherlink.com 1.10,2013-07-31 16:30:00,
2013-07-31 12:45:00,72.7,56.0,30.05,NW,307,3.0,-999.0,56,-99.99,,,0.00,weatherlink.com 1.10,2013-07-31 16:45:00,
2013-07-31 13:00:00,73.6,55.0,30.04,West,280,1.0,-999.0,53,-99.99,,,0.00,weatherlink.com 1.10,2013-07-31 17:00:00,
2013-07-31 13:15:00,74.9,55.0,30.04,WNW,302,0.0,-999.0,51,-99.99,,,0.00,weatherlink.com 1.10,2013-07-31 17:15:00,
2013-07-31 13:31:00,75.7,58.0,30.04,West,279,2.0,-999.0,54,-99.99,,,0.00,weatherlink.com 1.10,2013-07-31 17:31:00,
2013-07-31 13:46:00,75.8,56.0,30.03,West,277,2.0,-999.0,51,-99.99,,,0.00,weatherlink.com 1.10,2013-07-31 17:46:00,
2013-07-31 14:01:00,77.0,58.0,30.03,West,271,2.0,-999.0,52,-99.99,,,0.00,weatherlink.com 1.10,2013-07-31 18:01:00,
2013-07-31 14:16:00,76.3,55.0,30.03,North,360,2.0,-999.0,48,-99.99,,,0.00,weatherlink.com 1.10,2013-07-31 18:16:00,
2013-07-31 14:31:00,76.8,56.0,30.03,NW,320,3.0,-999.0,49,-99.99,,,0.00,weatherlink.com 1.10,2013-07-31 18:31:00,
2013-07-31 14:46:00,75.6,53.0,30.02,NNW,332,0.0,-999.0,46,-99.99,,,0.00,weatherlink.com 1.10,2013-07-31 18:46:00,
2013-07-31 15:01:00,76.6,55.0,30.02,WSW,245,2.0,-999.0,47,-99.99,,,0.00,weatherlink.com 1.10,2013-07-31 19:01:00,
2013-07-31 15:16:00,78.1,57.0,30.02,WNW,287,4.0,-999.0,48,-99.99,,,0.00,weatherlink.com 1.10,2013-07-31 19:16:00,
2013-07-31 15:31:00,76.2,55.0,30.02,West,280,1.0,-999.0,48,-99.99,,,0.00,weatherlink.com 1.10,2013-07-31 19:31:00,
2013-07-31 15:46:00,78.2,56.0,30.02,WSW,240,3.0,-999.0,47,-99.99,,,0.00,weatherlink.com 1.10,2013-07-31 19:46:00,
2013-07-31 16:01:00,78.7,57.0,30.01,West,271,2.0,-999.0,48,-99.99,,,0.00,weatherlink.com 1.10,2013-07-31 20:01:00,
2013-07-31 16:16:00,77.3,57.0,30.02,WSW,249,2.0,-999.0,50,-99.99,,,0.00,weatherlink.com 1.10,2013-07-31 20:16:00,
2013-07-31 16:31:00,77.8,55.0,30.01,West,279,4.0,-999.0,46,-99.99,,,0.00,weatherlink.com 1.10,2013-07-31 20:31:00,
2013-07-31 16:46:00,76.7,56.0,30.01,West,269,2.0,-999.0,49,-99.99,,,0.00,weatherlink.com 1.10,2013-07-31 20:46:00,
2013-07-31 17:01:00,77.4,61.0,30.00,SW,223,3.0,-999.0,57,-99.99,,,0.00,weatherlink.com 1.10,2013-07-31 21:01:00,
2013-07-31 17:16:00,77.1,59.0,30.01,West,260,5.0,-999.0,54,-99.99,,,0.00,weatherlink.com 1.10,2013-07-31 21:16:00,
2013-07-31 17:31:00,76.2,60.0,30.00,WSW,252,3.0,-999.0,57,-99.99,,,0.00,weatherlink.com 1.10,2013-07-31 21:31:00,
2013-07-31 17:46:00,75.8,60.0,30.00,West,263,7.0,-999.0,59,-99.99,,,0.00,weatherlink.com 1.10,2013-07-31 21:46:00,
2013-07-31 18:16:00,74.7,60.0,30.01,West,279,5.0,-999.0,60,-99.99,,,0.00,weatherlink.com 1.10,2013-07-31 22:16:00,
2013-07-31 18:31:00,74.0,59.0,30.01,West,267,3.0,-999.0,60,-99.99,,,0.00,weatherlink.com 1.10,2013-07-31 22:31:00,
2013-07-31 19:16:00,71.3,61.0,30.00,WSW,253,3.0,-999.0,69,-99.99,,,0.00,weatherlink.com 1.10,2013-07-31 23:16:00,
2013-07-31 19:31:00,70.7,61.0,30.00,WSW,250,1.0,-999.0,71,-99.99,,,0.00,weatherlink.com 1.10,2013-07-31 23:31:00,
2013-07-31 19:46:00,69.9,61.0,30.00,WSW,250,2.0,-999.0,74,-99.99,,,0.00,weatherlink.com 1.10,2013-07-31 23:46:00,
2013-07-31 20:01:00,69.2,61.0,30.00,WSW,250,1.0,-999.0,75,-99.99,,,0.00,weatherlink.com 1.10,2013-08-01 00:01:00,
2013-07-31 20:16:00,68.7,61.0,29.99,WSW,251,0.0,-999.0,76,-99.99,,,0.00,weatherlink.com 1.10,2013-08-01 00:16:00,
2013-07-31 20:31:00,67.6,61.0,29.99,WSW,250,0.0,-999.0,79,-99.99,,,0.00,weatherlink.com 1.10,2013-08-01 00:31:00,
2013-07-31 21:31:00,64.9,60.0,30.00,WSW,250,0.0,-999.0,83,-99.99,,,0.00,weatherlink.com 1.10,2013-08-01 01:31:00,
2013-07-31 21:46:00,63.9,59.0,30.00,WSW,251,0.0,-999.0,85,-99.99,,,0.00,weatherlink.com 1.10,2013-08-01 01:46:00,
2013-07-31 22:01:00,63.0,59.0,30.00,WSW,250,0.0,-999.0,86,-99.99,,,0.00,weatherlink.com 1.10,2013-08-01 02:01:00,
2013-07-31 22:16:00,62.1,59.0,30.00,WSW,250,0.0,-999.0,88,-99.99,,,0.00,weatherlink.com 1.10,2013-08-01 02:16:00,
2013-07-31 22:31:00,62.0,59.0,30.00,WSW,250,0.0,-999.0,90,-99.99,,,0.00,weatherlink.com 1.10,2013-08-01 02:31:00,
2013-07-31 22:46:00,62.1,60.0,30.00,WSW,250,0.0,-999.0,91,-99.99,,,0.00,weatherlink.com 1.10,2013-08-01 02:46:00,
2013-07-31 23:16:00,61.8,59.0,29.99,WSW,250,0.0,-999.0,91,-99.99,,,0.00,weatherlink.com 1.10,2013-08-01 03:16:00,
2013-07-31 23:31:00,61.5,59.0,29.99,WSW,250,0.0,-999.0,92,-99.99,,,0.00,weatherlink.com 1.10,2013-08-01 03:31:00,
2013-07-31 23:46:00,61.6,59.0,30.00,WSW,251,0.0,-999.0,91,-99.99,,,0.00,weatherlink.com 1.10,2013-08-01 03:46:00,